QPF
0.02 0.02 0.01 0.01 0.02 0.05 0.07 0.05 0.02 0.02 0.02 0.01 0.01 0.02 0.03 0.03 0.03 0.02 0.02 0.03 0.03 0.03 0.03 0.04 0.04 0.03 0.04 0.04 0.04 0.04 0.06 0.07 0.08 0.07 0.05 0.05 0.05 0.05 0.06 0.06 0.07 0.08 0.10
0.02 0.02 0.02 0.02 0.03 0.06 0.07 0.06 0.03 0.02 0.01 0.01 0.01 0.02 0.02 0.03 0.03 0.03 0.03 0.03 0.04 0.06 0.07 0.05 0.06 0.06 0.06 0.07 0.08 0.07 0.07 0.08 0.08 0.07 0.07 0.06 0.06 0.05 0.05 0.05 0.06 0.08 0.10
0.03 0.03 0.03 0.03 0.03 0.03 0.03 0.03 0.02 0.02 0.01 0.01 0.02 0.02 0.03 0.03 0.04 0.04 0.05 0.04 0.04 0.05 0.05 0.05 0.05 0.06 0.07 0.07 0.07 0.07 0.06 0.07 0.08 0.07 0.06 0.06 0.05 0.05 0.05 0.04 0.05 0.06 0.06
0.08 0.06 0.05 0.04 0.03 0.03 0.03 0.04 0.03 0.02 0.01 0.01 0.01 0.02 0.02 0.03 0.03 0.03 0.04 0.04 0.03 0.02 0.02 0.03 0.04 0.05 0.05 0.04 0.05 0.05 0.05 0.06 0.05 0.05 0.05 0.06 0.05 0.05 0.04 0.04 0.04 0.04 0.05
0.06 0.06 0.06 0.05 0.05 0.05 0.05 0.05 0.04 0.02 0.01 0.01 0.01 0.02 0.02 0.02 0.02 0.02 0.02 0.03 0.03 0.02 0.02 0.02 0.03 0.04 0.05 0.05 0.05 0.04 0.03 0.03 0.03 0.03 0.04 0.04 0.04 0.03 0.03 0.02 0.02 0.03 0.03
0.06 0.07 0.08 0.07 0.05 0.04 0.04 0.03 0.02 0.01 0.02 0.02 0.02 0.02 0.02 0.01 0.02 0.02 0.02 0.02 0.03 0.03 0.03 0.03 0.03 0.04 0.04 0.04 0.04 0.03 0.02 0.02 0.02 0.02 0.03 0.02 0.02 0.03 0.03 0.03 0.03 0.03 0.03
0.08 0.10 0.09 0.07 0.04 0.01 0.01 0.02 0.01 0.02 0.02 0.03 0.03 0.03 0.02 0.03 0.03 0.03 0.03 0.02 0.03 0.02 0.02 0.02 0.02 0.02 0.02 0.01 0.02 0.02 0.02 0.02 0.02 0.02 0.02 0.01 0.01 0.02 0.04 0.05 0.05 0.04 0.04
0.09 0.10 0.08 0.06 0.03 0.01 0.01 0.01 0.01 0.01 0.01 0.01 0.01 0.01 0.01 0.02 0.03 0.02 0.03 0.02 0.02 0.01 0.02 0.02 0.02 0.02 0.01 0.01 0.01 0.01 0.01 0.01 0.01 0.01 0.01 0.01 0.01 0.02 0.03 0.04 0.05 0.06 0.07
0.08 0.07 0.05 0.04 0.02 0.01 0.01 0.00 0.01 0.01 0.01 0.01 0.00 0.01 0.01 0.01 0.02 0.03 0.03 0.02 0.01 0.01 0.01 0.02 0.03 0.03 0.01 0.01 0.01 0.01 0.01 0.00 0.01 0.01 0.01 0.01 0.02 0.02 0.03 0.02 0.02 0.03 0.04
0.07 0.05 0.03 0.02 0.01 0.01 0.01 0.01 0.01 0.01 0.01 0.01 0.00 0.01 0.01 0.01 0.01 0.02 0.02 0.01 0.01 0.01 0.01 0.00 0.01 0.01 0.02 0.02 0.01 0.01 0.01 0.00 0.01 0.01 0.01 0.01 0.02 0.02 0.02 0.02 0.02 0.02 0.02
0.08 0.07 0.07 0.07 0.03 0.02 0.02 0.02 0.01 0.01 0.01 0.01 0.01 0.01 0.01 0.01 0.01 0.02 0.02 0.01 0.01 0.01 0.01 0.01 0.01 0.01 0.01 0.02 0.03 0.02 0.02 0.01 0.01 0.01 0.02 0.02 0.02 0.02 0.01 0.01 0.02 0.02 0.03
0.08 0.09 0.10 0.11 0.07 0.03 0.02 0.02 0.01 0.01 0.02 0.02 0.01 0.01 0.02 0.02 0.02 0.02 0.02 0.03 0.02 0.02 0.02 0.02 0.03 0.03 0.02 0.02 0.03 0.03 0.04 0.05 0.04 0.04 0.03 0.02 0.01 0.01 0.01 0.02 0.02 0.03 0.03
0.07 0.09 0.09 0.09 0.07 0.04 0.04 0.03 0.02 0.02 0.02 0.02 0.01 0.01 0.02 0.03 0.03 0.04 0.03 0.03 0.03 0.02 0.02 0.03 0.02 0.02 0.02 0.02 0.01 0.02 0.03 0.04 0.05 0.06 0.06 0.04 0.03 0.02 0.02 0.03 0.03 0.04 0.04
0.06 0.08 0.08 0.07 0.04 0.03 0.04 0.04 0.04 0.03 0.03 0.02 0.02 0.03 0.02 0.03 0.03 0.04 0.03 0.03 0.03 0.03 0.03 0.03 0.03 0.03 0.02 0.01 0.01 0.01 0.01 0.01 0.02 0.03 0.04 0.04 0.04 0.04 0.04 0.03 0.04 0.03 0.03
0.04 0.04 0.04 0.04 0.04 0.04 0.04 0.05 0.05 0.05 0.05 0.04 0.04 0.04 0.04 0.04 0.04 0.04 0.04 0.04 0.03 0.03 0.04 0.04 0.05 0.05 0.04 0.03 0.03 0.02 0.01 0.01 0.01 0.01 0.01 0.01 0.01 0.01 0.01 0.02 0.02 0.02 0.02
0.03 0.02 0.03 0.04 0.04 0.04 0.04 0.04 0.04 0.05 0.06 0.05 0.06 0.07 0.08 0.07 0.06 0.04 0.03 0.03 0.04 0.04 0.04 0.05 0.06 0.06 0.06 0.05 0.04 0.03 0.01 0.01 0.01 0.01 0.01 0.00 0.00 0.00 0.00 0.01 0.01 0.01 0.01
0.02 0.02 0.02 0.04 0.04 0.05 0.04 0.04 0.04 0.04 0.03 0.03 0.04 0.05 0.06 0.05 0.04 0.03 0.03 0.05 0.07 0.08 0.06 0.06 0.05 0.04 0.03 0.03 0.02 0.02 0.01 0.01 0.01 0.01 0.01 0.01 0.01 0.01 0.01 0.01 0.01 0.01 0.01
0.02 0.02 0.02 0.02 0.03 0.04 0.04 0.03 0.03 0.03 0.02 0.02 0.02 0.02 0.02 0.02 0.02 0.02 0.02 0.03 0.05 0.07 0.07 0.06 0.05 0.04 0.03 0.02 0.02 0.01 0.01 0.00 0.00 0.00 0.01 0.01 0.01 0.01 0.01 0.01 0.01 0.01 0.02
0.04 0.03 0.03 0.03 0.03 0.03 0.03 0.03 0.03 0.03 0.03 0.02 0.03 0.02 0.02 0.02 0.02 0.02 0.02 0.03 0.03 0.04 0.04 0.03 0.04 0.04 0.03 0.02 0.02 0.01 0.00 0.00 0.00 0.00 0.00 0.00 0.01 0.01 0.01 0.01 0.01 0.02 0.02
0.05 0.05 0.05 0.04 0.04 0.03 0.03 0.03 0.03 0.02 0.02 0.02 0.02 0.02 0.02 0.01 0.01 0.01 0.02 0.02 0.03 0.03 0.03 0.03 0.02 0.02 0.02 0.02 0.02 0.01 0.00 0.00 0.00 0.00 0.00 0.00 0.00 0.00 0.01 0.01 0.01 0.01 0.01
0.05 0.06 0.07 0.07 0.06 0.05 0.05 0.05 0.05 0.04 0.04 0.04 0.05 0.05 0.04 0.02 0.02 0.02 0.01 0.01 0.02 0.02 0.03 0.03 0.02 0.02 0.01 0.01 0.01 0.01 0.00 0.00 0.00 0.00 0.00 0.00 0.00 0.00 0.00 0.01 0.01 0.01 0.01
0.05 0.06 0.06 0.06 0.06 0.05 0.05 0.06 0.06 0.05 0.05 0.05 0.06 0.08 0.07 0.05 0.05 0.04 0.02 0.02 0.02 0.02 0.03 0.04 0.04 0.02 0.02 0.02 0.01 0.00 0.00 0.00 0.00 0.00 0.01 0.01 0.01 0.01 0.01 0.01 0.00 0.00 0.00
0.04 0.04 0.03 0.04 0.04 0.04 0.05 0.06 0.06 0.05 0.05 0.09 0.08 0.06 0.05 0.05 0.04 0.04 0.04 0.03 0.03 0.03 0.03 0.04 0.05 0.04 0.04 0.03 0.02 0.01 0.01 0.01 0.01 0.01 0.01 0.01 0.01 0.01 0.01 0.01 0.01 0.01 0.01
0.03 0.02 0.02 0.03 0.04 0.05 0.06 0.07 0.08 0.07 0.06 0.07 0.07 0.05 0.04 0.04 0.04 0.04 0.03 0.03 0.04 0.05 0.05 0.04 0.04 0.04 0.04 0.04 0.03 0.03 0.02 0.01 0.01 0.01 0.01 0.01 0.02 0.03 0.02 0.01 0.01 0.01 0.00
0.02 0.02 0.02 0.03 0.04 0.05 0.05 0.04 0.06 0.06 0.05 0.05 0.05 0.05 0.04 0.04 0.05 0.04 0.03 0.03 0.02 0.03 0.03 0.03 0.02 0.02 0.02 0.01 0.01 0.01 0.01 0.01 0.01 0.01 0.01 0.01 0.01 0.01 0.02 0.02 0.01 0.01 0.01
0.01 0.01 0.01 0.02 0.02 0.03 0.03 0.03 0.04 0.05 0.05 0.05 0.05 0.05 0.05 0.05 0.04 0.03 0.02 0.02 0.02 0.02 0.02 0.03 0.02 0.01 0.01 0.01 0.01 0.01 0.01 0.01 0.01 0.01 0.01 0.01 0.01 0.01 0.01 0.01 0.01 0.01 0.01
MSLP
1013.26 1013.55 1013.86 1014.15 1014.37 1014.52 1014.60 1014.64 1014.68 1014.75 1014.87 1015.06 1015.30 1015.56 1015.80 1016.00 1016.12 1016.18 1016.18 1016.14 1016.10 1016.08 1016.10 1016.16 1016.23 1016.30 1016.32 1016.26 1016.10 1015.84 1015.49 1015.06 1014.60 1014.13 1013.70 1013.32 1013.01 1012.77 1012.59 1012.48 1012.42 1012.42 1012.46
1012.90 1013.20 1013.53 1013.84 1014.12 1014.33 1014.49 1014.63 1014.76 1014.91 1015.10 1015.34 1015.62 1015.89 1016.14 1016.32 1016.44 1016.48 1016.46 1016.41 1016.36 1016.32 1016.33 1016.37 1016.44 1016.50 1016.53 1016.49 1016.37 1016.15 1015.84 1015.46 1015.03 1014.59 1014.16 1013.77 1013.42 1013.12 1012.87 1012.66 1012.50 1012.39 1012.33
1012.42 1012.73 1013.09 1013.44 1013.77 1014.06 1014.31 1014.54 1014.77 1015.02 1015.29 1015.59 1015.90 1016.20 1016.45 1016.64 1016.75 1016.78 1016.76 1016.70 1016.64 1016.60 1016.61 1016.65 1016.73 1016.80 1016.85 1016.84 1016.76 1016.58 1016.32 1015.99 1015.61 1015.20 1014.78 1014.37 1013.98 1013.62 1013.29 1012.99 1012.71 1012.47 1012.28
1011.84 1012.15 1012.52 1012.91 1013.30 1013.66 1014.01 1014.34 1014.67 1015.02 1015.38 1015.75 1016.11 1016.44 1016.70 1016.90 1017.01 1017.05 1017.02 1016.97 1016.92 1016.89 1016.91 1016.96 1017.05 1017.14 1017.22 1017.24 1017.20 1017.07 1016.87 1016.59 1016.25 1015.87 1015.46 1015.05 1014.64 1014.23 1013.82 1013.41 1013.02 1012.65 1012.32
1011.18 1011.49 1011.86 1012.28 1012.71 1013.14 1013.57 1014.01 1014.45 1014.89 1015.35 1015.80 1016.22 1016.58 1016.88 1017.09 1017.22 1017.26 1017.25 1017.21 1017.17 1017.15 1017.18 1017.25 1017.36 1017.47 1017.57 1017.62 1017.61 1017.53 1017.37 1017.13 1016.84 1016.49 1016.11 1015.70 1015.27 1014.83 1014.36 1013.88 1013.39 1012.90 1012.43
1010.52 1010.81 1011.18 1011.60 1012.06 1012.55 1013.05 1013.57 1014.11 1014.66 1015.21 1015.74 1016.23 1016.65 1016.98 1017.22 1017.36 1017.42 1017.42 1017.39 1017.37 1017.37 1017.40 1017.49 1017.60 1017.72 1017.84 1017.91 1017.93 1017.87 1017.74 1017.54 1017.28 1016.97 1016.61 1016.22 1015.79 1015.33 1014.83 1014.29 1013.73 1013.14 1012.56
1009.94 1010.20 1010.55 1010.96 1011.43 1011.95 1012.51 1013.11 1013.73 1014.37 1015.00 1015.61 1016.17 1016.64 1017.01 1017.28 1017.45 1017.52 1017.54 1017.52 1017.50 1017.51 1017.55 1017.63 1017.74 1017.87 1017.98 1018.06 1018.08 1018.04 1017.92 1017.75 1017.51 1017.22 1016.89 1016.52 1016.10 1015.64 1015.13 1014.57 1013.96 1013.32 1012.65
1009.54 1009.76 1010.07 1010.46 1010.92 1011.45 1012.04 1012.68 1013.37 1014.07 1014.78 1015.45 1016.06 1016.58 1016.99 1017.29 1017.47 1017.56 1017.59 1017.58 1017.56 1017.57 1017.61 1017.68 1017.78 1017.89 1017.99 1018.05 1018.07 1018.02 1017.90 1017.73 1017.51 1017.23 1016.92 1016.57 1016.17 1015.73 1015.23 1014.67 1014.05 1013.37 1012.66
1009.32 1009.51 1009.78 1010.14 1010.58 1011.10 1011.70 1012.37 1013.09 1013.83 1014.58 1015.29 1015.93 1016.48 1016.91 1017.23 1017.43 1017.53 1017.57 1017.56 1017.55 1017.56 1017.59 1017.65 1017.73 1017.82 1017.89 1017.93 1017.91 1017.84 1017.71 1017.53 1017.30 1017.03 1016.73 1016.39 1016.01 1015.58 1015.10 1014.56 1013.95 1013.27 1012.54
1009.26 1009.43 1009.67 1010.00 1010.41 1010.92 1011.51 1012.17 1012.89 1013.65 1014.41 1015.13 1015.78 1016.34 1016.78 1017.10 1017.31 1017.43 1017.47 1017.48 1017.47 1017.48 1017.51 1017.56 1017.62 1017.68 1017.72 1017.73 1017.68 1017.57 1017.42 1017.21 1016.96 1016.68 1016.37 1016.04 1015.67 1015.25 1014.79 1014.26 1013.67 1013.01 1012.28
1009.28 1009.44 1009.67 1009.98 1010.38 1010.86 1011.43 1012.08 1012.78 1013.52 1014.26 1014.97 1015.60 1016.15 1016.58 1016.90 1017.12 1017.24 1017.30 1017.32 1017.33 1017.35 1017.38 1017.42 1017.47 1017.51 1017.52 1017.49 1017.41 1017.27 1017.08 1016.84 1016.56 1016.26 1015.93 1015.58 1015.21 1014.80 1014.34 1013.82 1013.24 1012.59 1011.88
1009.27 1009.45 1009.70 1010.01 1010.40 1010.86 1011.41 1012.03 1012.70 1013.40 1014.10 1014.77 1015.37 1015.89 1016.30 1016.61 1016.83 1016.97 1017.05 1017.10 1017.13 1017.17 1017.21 1017.25 1017.30 1017.32 1017.30 1017.24 1017.13 1016.95 1016.73 1016.45 1016.15 1015.81 1015.46 1015.09 1014.69 1014.27 1013.80 1013.28 1012.69 1012.04 1011.33
1009.16 1009.39 1009.66 1009.99 1010.39 1010.86 1011.39 1011.97 1012.61 1013.26 1013.90 1014.52 1015.07 1015.55 1015.94 1016.24 1016.46 1016.62 1016.73 1016.81 1016.87 1016.94 1017.00 1017.06 1017.10 1017.11 1017.08 1016.99 1016.84 1016.64 1016.38 1016.08 1015.74 1015.38 1015.00 1014.59 1014.17 1013.71 1013.21 1012.66 1012.06 1011.39 1010.66
1008.93 1009.21 1009.53 1009.91 1010.33 1010.81 1011.33 1011.89 1012.49 1013.08 1013.67 1014.22 1014.72 1015.15 1015.51 1015.80 1016.03 1016.21 1016.35 1016.47 1016.57 1016.67 1016.75 1016.82 1016.86 1016.86 1016.81 1016.70 1016.53 1016.31 1016.03 1015.70 1015.35 1014.96 1014.55 1014.12 1013.66 1013.16 1012.62 1012.03 1011.37 1010.67 1009.91
1008.62 1008.96 1009.34 1009.77 1010.23 1010.73 1011.25 1011.80 1012.35 1012.89 1013.41 1013.90 1014.34 1014.73 1015.06 1015.33 1015.57 1015.77 1015.94 1016.09 1016.23 1016.35 1016.45 1016.52 1016.55 1016.54 1016.47 1016.35 1016.16 1015.92 1015.63 1015.30 1014.94 1014.54 1014.12 1013.67 1013.17 1012.64 1012.04 1011.39 1010.68 1009.91 1009.10
1008.35 1008.75 1009.19 1009.66 1010.17 1010.68 1011.21 1011.73 1012.24 1012.73 1013.18 1013.60 1013.98 1014.32 1014.61 1014.88 1015.11 1015.32 1015.51 1015.69 1015.84 1015.97 1016.08 1016.14 1016.16 1016.13 1016.04 1015.89 1015.69 1015.44 1015.16 1014.84 1014.49 1014.11 1013.69 1013.23 1012.72 1012.14 1011.50 1010.78 1010.00 1009.16 1008.28
1008.27 1008.70 1009.18 1009.69 1010.21 1010.74 1011.25 1011.74 1012.20 1012.63 1013.02 1013.37 1013.69 1013.97 1014.22 1014.46 1014.68 1014.89 1015.09 1015.27 1015.43 1015.55 1015.64 1015.68 1015.67 1015.60 1015.49 1015.32 1015.11 1014.87 1014.61 1014.32 1014.00 1013.65 1013.26 1012.81 1012.29 1011.69 1011.01 1010.23 1009.38 1008.47 1007.52
1008.46 1008.90 1009.39 1009.90 1010.43 1010.94 1011.43 1011.87 1012.27 1012.63 1012.94 1013.21 1013.46 1013.68 1013.89 1014.09 1014.29 1014.48 1014.66 1014.83 1014.97 1015.07 1015.13 1015.13 1015.08 1014.98 1014.83 1014.65 1014.44 1014.22 1013.98 1013.74 1013.47 1013.17 1012.83 1012.41 1011.91 1011.30 1010.58 1009.77 1008.85 1007.87 1006.85
1008.95 1009.37 1009.84 1010.33 1010.82 1011.29 1011.72 1012.10 1012.43 1012.70 1012.92 1013.11 1013.27 1013.43 1013.58 1013.73 1013.89 1014.06 1014.21 1014.35 1014.45 1014.52 1014.53 1014.49 1014.40 1014.26 1014.09 1013.90 1013.70 1013.51 1013.32 1013.13 1012.94 1012.71 1012.42 1012.05 1011.57 1010.97 1010.25 1009.39 1008.43 1007.39 1006.32
1009.66 1010.04 1010.45 1010.89 1011.32 1011.72 1012.07 1012.36 1012.60 1012.77 1012.90 1013.00 1013.08 1013.15 1013.24 1013.34 1013.45 1013.57 1013.69 1013.79 1013.85 1013.88 1013.85 1013.76 1013.63 1013.47 1013.29 1013.10 1012.93 1012.78 1012.65 1012.53 1012.41 1012.25 1012.04 1011.72 1011.29 1010.71 1009.98 1009.11 1008.12 1007.04 1005.93
1010.45 1010.76 1011.10 1011.45 1011.80 1012.10 1012.36 1012.55 1012.68 1012.75 1012.78 1012.79 1012.78 1012.78 1012.81 1012.85 1012.92 1012.99 1013.07 1013.12 1013.15 1013.13 1013.06 1012.95 1012.80 1012.62 1012.44 1012.28 1012.14 1012.04 1011.98 1011.94 1011.89 1011.82 1011.68 1011.42 1011.04 1010.49 1009.77 1008.90 1007.89 1006.79 1005.66
1011.13 1011.35 1011.61 1011.87 1012.11 1012.32 1012.46 1012.55 1012.58 1012.55 1012.49 1012.41 1012.33 1012.26 1012.22 1012.21 1012.23 1012.27 1012.30 1012.32 1012.32 1012.27 1012.18 1012.05 1011.89 1011.72 1011.56 1011.43 1011.34 1011.30 1011.31 1011.34 1011.38 1011.38 1011.31 1011.12 1010.78 1010.26 1009.57 1008.71 1007.71 1006.61 1005.48
1011.53 1011.68 1011.84 1012.01 1012.15 1012.26 1012.31 1012.29 1012.23 1012.12 1011.98 1011.83 1011.69 1011.56 1011.48 1011.42 1011.40 1011.40 1011.40 1011.39 1011.36 1011.29 1011.19 1011.06 1010.91 1010.76 1010.63 1010.54 1010.51 1010.53 1010.61 1010.72 1010.83 1010.90 1010.89 1010.76 1010.47 1010.00 1009.34 1008.50 1007.52 1006.45 1005.33
1011.60 1011.67 1011.76 1011.84 1011.90 1011.92 1011.88 1011.80 1011.66 1011.49 1011.29 1011.08 1010.89 1010.73 1010.61 1010.52 1010.46 1010.43 1010.41 1010.37 1010.32 1010.24 1010.13 1010.01 1009.87 1009.74 1009.65 1009.61 1009.62 1009.71 1009.84 1010.02 1010.19 1010.32 1010.37 1010.29 1010.05 1009.63 1009.02 1008.23 1007.29 1006.25 1005.17
1011.37 1011.38 1011.41 1011.43 1011.42 1011.37 1011.28 1011.14 1010.96 1010.74 1010.51 1010.27 1010.05 1009.86 1009.71 1009.59 1009.51 1009.45 1009.39 1009.33 1009.26 1009.16 1009.05 1008.92 1008.79 1008.69 1008.62 1008.61 1008.67 1008.80 1008.99 1009.21 1009.43 1009.62 1009.72 1009.70 1009.51 1009.14 1008.59 1007.85 1006.98 1006.00 1004.98
1010.99 1010.96 1010.94 1010.91 1010.86 1010.77 1010.65 1010.47 1010.26 1010.02 1009.77 1009.52 1009.29 1009.08 1008.90 1008.76 1008.64 1008.54 1008.45 1008.36 1008.25 1008.13 1007.99 1007.85 1007.72 1007.62 1007.56 1007.57 1007.66 1007.82 1008.04 1008.29 1008.56 1008.79 1008.93 1008.96 1008.84 1008.53 1008.05 1007.39 1006.59 1005.69 1004.74
Thickness
5766 5763 5760 5757 5754 5751 5748 5745 5742 5740 5738 5735 5734 5732 5729 5727 5726 5724 5722 5720 5718 5717 5716 5715 5713 5712 5710 5708 5706 5704 5702 5699 5694 5693 5692 5691 5691 5690 5689 5689 5687 5686 5684
5764 5761 5759 5756 5752 5749 5745 5742 5740 5737 5735 5733 5731 5729 5726 5725 5723 5721 5718 5716 5715 5713 5712 5710 5708 5707 5705 5703 5701 5699 5697 5694 5691 5687 5686 5685 5684 5683 5681 5681 5680 5678 5676
5763 5759 5756 5752 5748 5745 5742 5739 5737 5734 5732 5729 5727 5725 5723 5721 5719 5717 5715 5713 5711 5709 5708 5706 5704 5701 5699 5697 5695 5693 5691 5690 5687 5683 5680 5678 5677 5675 5673 5672 5671 5669 5668
5761 5756 5751 5747 5745 5741 5738 5735 5733 5730 5727 5725 5723 5721 5719 5717 5715 5713 5710 5708 5707 5705 5703 5701 5699 5697 5694 5692 5690 5688 5686 5683 5681 5677 5674 5671 5669 5668 5666 5664 5662 5661 5660
5757 5753 5749 5746 5742 5738 5735 5732 5729 5726 5723 5721 5719 5716 5714 5712 5711 5708 5706 5704 5701 5699 5698 5696 5694 5692 5690 5688 5685 5682 5680 5677 5674 5671 5667 5665 5662 5661 5659 5657 5655 5653 5651
5754 5749 5746 5742 5739 5735 5731 5728 5725 5722 5719 5716 5714 5712 5709 5708 5706 5704 5701 5698 5696 5694 5691 5690 5688 5686 5684 5682 5679 5677 5675 5672 5668 5665 5662 5659 5657 5655 5653 5651 5649 5647 5644
5750 5746 5742 5738 5733 5729 5727 5724 5720 5717 5714 5711 5709 5707 5704 5702 5700 5698 5695 5693 5690 5688 5685 5683 5681 5679 5677 5674 5672 5670 5667 5665 5663 5660 5657 5654 5651 5650 5648 5645 5642 5640 5638
5745 5741 5738 5734 5729 5726 5723 5720 5716 5713 5710 5707 5704 5701 5698 5696 5694 5692 5689 5687 5684 5682 5679 5677 5674 5672 5670 5667 5665 5662 5659 5657 5655 5654 5651 5649 5647 5644 5642 5640 5636 5633 5629
5740 5736 5733 5730 5727 5723 5719 5715 5712 5708 5704 5701 5699 5696 5693 5691 5689 5686 5684 5681 5678 5675 5673 5671 5668 5666 5663 5661 5658 5654 5652 5650 5648 5646 5644 5642 5640 5637 5635 5633 5629 5627 5623
5737 5734 5730 5726 5722 5718 5714 5710 5706 5703 5699 5696 5693 5691 5688 5685 5683 5681 5679 5676 5672 5669 5667 5664 5662 5660 5657 5654 5651 5648 5645 5642 5641 5639 5637 5635 5632 5630 5628 5626 5623 5620 5617
5732 5728 5724 5719 5716 5713 5709 5705 5701 5697 5694 5691 5688 5685 5683 5680 5677 5675 5673 5670 5667 5664 5661 5658 5655 5653 5650 5648 5645 5642 5639 5636 5634 5631 5629 5627 5625 5623 5620 5618 5615 5613 5610
5725 5721 5717 5714 5711 5708 5703 5699 5695 5692 5688 5685 5682 5679 5677 5674 5671 5669 5666 5663 5661 5658 5655 5651 5649 5646 5643 5641 5638 5635 5632 5629 5627 5625 5622 5620 5618 5615 5613 5610 5607 5605 5602
5719 5715 5712 5708 5705 5703 5699 5694 5690 5686 5683 5679 5676 5673 5671 5668 5665 5662 5660 5657 5654 5652 5649 5645 5642 5639 5636 5633 5631 5628 5625 5623 5620 5618 5615 5612 5610 5607 5605 5602 5600 5597 5594
5712 5709 5705 5703 5700 5697 5694 5690 5685 5681 5677 5673 5670 5668 5665 5661 5658 5656 5653 5651 5647 5644 5641 5638 5635 5632 5629 5626 5623 5620 5618 5615 5613 5610 5608 5604 5602 5599 5597 5594 5592 5590 5587
5704 5701 5698 5696 5694 5690 5687 5683 5680 5678 5674 5670 5667 5664 5660 5657 5655 5651 5647 5645 5642 5639 5635 5631 5628 5625 5622 5619 5616 5614 5611 5608 5604 5602 5600 5598 5595 5592 5589 5586 5583 5581 5578
5698 5694 5691 5688 5685 5682 5679 5676 5673 5671 5668 5664 5661 5658 5655 5653 5649 5644 5641 5638 5635 5632 5628 5626 5622 5619 5616 5614 5611 5608 5604 5601 5598 5595 5593 5591 5588 5585 5582 5579 5575 5573 5570
5692 5688 5685 5682 5679 5675 5673 5671 5667 5664 5660 5657 5654 5651 5648 5646 5642 5639 5635 5632 5628 5624 5622 5620 5617 5614 5611 5608 5605 5602 5599 5595 5592 5589 5587 5584 5581 5578 5575 5572 5568 5565 5562
5685 5682 5679 5676 5674 5670 5668 5665 5662 5658 5654 5651 5647 5644 5642 5639 5636 5632 5628 5624 5620 5617 5616 5615 5612 5609 5605 5602 5599 5596 5592 5589 5586 5583 5580 5577 5574 5571 5568 5565 5562 5558 5555
5677 5674 5672 5669 5666 5663 5660 5657 5654 5651 5648 5645 5642 5638 5635 5631 5628 5625 5621 5620 5617 5614 5611 5609 5606 5603 5600 5597 5593 5590 5586 5583 5580 5577 5574 5570 5567 5564 5562 5559 5556 5550 5547
5670 5668 5664 5661 5658 5654 5651 5649 5646 5643 5641 5638 5636 5633 5628 5624 5622 5619 5616 5614 5612 5609 5606 5603 5600 5597 5594 5591 5587 5583 5580 5577 5574 5571 5568 5565 5561 5558 5555 5553 5549 5546 5542
5662 5659 5656 5653 5650 5647 5644 5641 5638 5635 5633 5631 5630 5627 5623 5621 5619 5615 5611 5609 5606 5603 5601 5597 5594 5591 5588 5585 5581 5578 5575 5572 5568 5565 5562 5559 5555 5552 5549 5546 5543 5539 5536
5655 5651 5648 5645 5643 5640 5636 5634 5631 5629 5627 5625 5623 5620 5615 5613 5611 5609 5606 5603 5601 5598 5595 5591 5588 5586 5583 5580 5576 5573 5570 5567 5564 5560 5556 5553 5549 5546 5543 5540 5537 5533 5530
5646 5643 5641 5638 5635 5632 5629 5627 5624 5622 5620 5618 5615 5612 5609 5606 5604 5602 5599 5597 5595 5592 5589 5586 5583 5580 5577 5574 5571 5568 5565 5563 5559 5556 5552 5547 5544 5541 5537 5534 5531 5527 5525
5638 5636 5634 5630 5627 5625 5622 5620 5618 5615 5613 5611 5608 5605 5603 5599 5597 5595 5593 5591 5588 5585 5582 5579 5576 5574 5571 5568 5565 5562 5559 5556 5553 5549 5546 5542 5538 5535 5531 5528 5525 5522 5519
5630 5628 5625 5623 5621 5618 5615 5613 5610 5608 5606 5603 5601 5599 5596 5593 5590 5589 5587 5584 5581 5578 5576 5572 5570 5567 5564 5561 5559 5556 5553 5550 5546 5543 5539 5536 5532 5529 5525 5522 5519 5516 5513
5622 5620 5617 5615 5613 5610 5607 5605 5603 5600 5598 5596 5594 5592 5589 5587 5585 5583 5580 5578 5575 5572 5569 5566 5563 5561 5558 5556 5553 5550 5547 5544 5540 5536 5532 5529 5526 5523 5519 5516 5513 5510 5507